Regional Weather Roundup
Issued by NWS

Home | Current Version | Previous Version | Text Only | Print | Product List | Glossary Off
Versions: 1 2 3 4 5 6 7 8 9 10 11 12 13 14 15 16 17 18 19 20 21 22 23 24 25 26 27 28 29 30 31 32 33 34 35 36 37 38 39 40 41 42 43 44 45 46 47 48 49 50

000
ASUS43 KDTX 261401
RWRMI
MICHIGAN HOURLY REGIONAL WEATHER ROUNDUP
NATIONAL WEATHER SERVICE DETROIT/PONTIAC MI
1000 AM EDT WED APR 26 2017

NOTE: "FAIR" INDICATES FEW OR NO CLOUDS BELOW 12,000 FEET WITH NO
SIGNIFICANT WEATHER AND/OR OBSTRUCTION TO VISIBILITY.

MIZ047>049-052>055-059>063-066>070-074>076-081>083-261500-
SOUTHEAST LOWER MICHIGAN

CITY           SKY/WX    TMP DP  RH WIND       PRES   REMARKS
ADRIAN         MOSUNNY   65  57  75 S12       29.67R
ALMA           MOSUNNY   65  57  76 SE13      29.61S
ANN ARBOR      SUNNY     64  57  78 SE10      29.67S
BAD AXE        SUNNY     61  54  77 S10G18    29.69F
CARO           SUNNY     63  55  75 SE14G20   29.64F
DETROIT CITY   SUNNY     62  56  80 SE12      29.69F
DETROIT        MOSUNNY   62  55  77 SE15      29.69F
FLINT          PTSUNNY   63  55  75 SE20      29.63F
GROSSE ILE     SUNNY     62  55  79 SE7       29.68F
HILLSDALE      PTSUNNY   63  55  77 S12       29.64S
HOWELL         CLOUDY    62  54  74 SE13      29.65R

CITY           SKY/WX    TMP DP  RH WIND       PRES   REMARKS
JACKSON        CLOUDY    66  56  70 S15G22    29.63R
LAMBERTVILLE   SUNNY     65  56  74 S9        29.67S
LANSING        MOSUNNY   65  55  70 S15       29.63R
LAPEER         FAIR      63  54  73 SE16      29.67F
MASON          CLOUDY    65  57  76 SE10G21   29.63R
MONROE         SUNNY     62  56  81 SE7       29.67F
MT. CLEMENS    MOSUNNY   60  58  94 SE15      29.70F
PONTIAC        PTSUNNY   61  54  77 SE12      29.65F
PORT HOPE        N/A     60  53  77 SE15G23   29.67F
PORT HURON     SUNNY     63  52  67 S9G16     29.72F
TRI CITIES     CLOUDY    65  56  72 SE14      29.62F
MIDLAND        FAIR      66  54  63 SE10      29.61F
TROY           MOSUNNY   62  54  73 SE9       29.70F
SAGINAW HB     CLOUDY    64  52  63 SE12      29.62F
$$
MIZ043>046-050>051-056>058-064>065-071>073-077>080-261500-
SOUTHWEST LOWER MICHIGAN

CITY           SKY/WX    TMP DP  RH WIND       PRES   REMARKS
BATTLE CREEK   CLOUDY    65  57  75 S10       29.60S
BENTON HARBOR  MOSUNNY   69  56  62 S12       29.50F
BIG RAPIDS     CLOUDY    65  53  67 S13G21    29.56F
COLDWATER      CLOUDY    66  57  73 SE13      29.61F
FREMONT        FAIR      65  53  65 S10G17    29.54R
HOLLAND        MOSUNNY   69  57  65 S12       29.54F
GRAND RAPIDS   CLOUDY    66  57  72 SE13      29.57S
IONIA          FAIR      64  55  75 SE16G22   29.59S
KALAMAZOO      CLOUDY    66  55  67 S8        29.59F
LUDINGTON      MOSUNNY   68  57  69 S13       29.50S
MARSHALL       CLOUDY    65  56  73 SE12      29.61S
MOUNT PLEASANT CLOUDY    65  55  69 SE12      29.59S
MUSKEGON       PTSUNNY   70  56  61 SE15      29.52F
SOUTH HAVEN    PTSUNNY   68  56  65 SE9G16    29.51F
$$
MIZ016>042-261500-
NORTHERN LOWER MICHIGAN

CITY           SKY/WX    TMP DP  RH WIND       PRES   REMARKS
ALPENA         CLOUDY    49  48  97 E10       29.66F FOG
BEAVER ISLAND  CLOUDY    45  44  99 E10       29.55S FOG
BELLAIRE       CLOUDY    67  53  62 SE10G18   29.54F
CADILLAC       PTSUNNY   65  55  70 SE14      29.55F
CHARLEVOIX     MOSUNNY   65  55  68 SE7       29.56F
FRANKFORT      PTSUNNY   69  54  60 SE13G20   29.50F
GAYLORD        CLOUDY    63  52  67 SE12      29.59F
GRAYLING       CLOUDY    64  54  71 SE8       29.60F
HARBOR SPRINGS PTSUNNY   62  54  76 E7        29.56S
HOUGHTON LAKE  PTSUNNY   61  53  75 SE10      29.61S
MANISTEE       MOSUNNY   69  56  62 SE15G22   29.49F
OSCODA         CLOUDY    57  52  81 S13       29.66F
PELLSTON       PTSUNNY   59  51  75 SE9       29.58F
ROGERS CITY    CLOUDY    56  52  85 SE14      29.63
TRAVERSE CITY  PTSUNNY   67  54  63 SE13G22   29.51F
$$
MIZ007>008-015-261500-
EASTERN UPPER MICHIGAN

CITY           SKY/WX    TMP DP  RH WIND       PRES   REMARKS
KINROSS        CLOUDY    47  46  97 E21G29    29.63S FOG
MACKINAC ISLAN FOG       40  40 100 E16G26    29.60F VSB<1/4 WCI  32
NEWBERRY       CLOUDY    47  47  97 E12       29.57F FOG
S. S. MARIE    CLOUDY    52  49  89 E10G18    29.63F FOG
MUNISING         N/A     42  42 100 N3        29.53F
$$
MIZ004>006-011>014-085-261500-
CENTRAL UPPER MICHIGAN

CITY           SKY/WX    TMP DP  RH WIND       PRES   REMARKS
MANISTIQUE     CLOUDY    51  51  97 E9G17     29.53S
MENOMINEE      PTSUNNY   51  48  89 E9        29.47F
$$
MIZ001>003-009>011-084-261500-
WESTERN UPPER MICHIGAN

CITY           SKY/WX    TMP DP  RH WIND       PRES   REMARKS
IRON MOUNTAIN  CLOUDY    50  47  89 NE5       29.46F
HOUGHTON       LGT RAIN  35  33  92 NE9       29.57F FOG     WCI  28
COPPER HARBOR    N/A     34  33  96 E14G23    29.62F WCI  25
IRONWOOD       LGT RAIN  33  32  96 NE6       29.53F WCI  28
$$

ABBREVIATIONS USED IN REMARKS
   TC - TEMPERATURE IN CELSIUS
  WCI - WIND CHILL INDEX
   HX - HEAT INDEX
  VSB - VISIBILITY





USA.gov is the U.S. government's official web portal to all federal, state and local government web resources and services.